#timestamp,LO_Frequency,Hit,StdDev 
1644559215.8,286047000.6,N
1644559235.6,286046998.6,N
1644559255.5,286047000.8,N
1644559275.3,286047000.3,N
1644559295.1,286046998.9,N
1644559315.9,286046998.8,N
1644559335.7,286046996.5,Y
1644559355.6,286046998.7,P
1644559375.4,286046998.4,N
1644559395.2,286046999.4,N
1644559415.1,286046998.2,N
1644559416.0,286046998.2,N
1644559435.8,286047000.2,N
1644559455.6,286046999.9,N
1644559475.5,286047000.0,N
1644559495.3,286047000.3,N
1644559515.2,286047000.9,N
1644559535.9,286047002.8,Y
1644559555.7,286047002.5,P
1644559575.6,286047001.7,N
1644559595.4,286047002.2,N
1644559615.2,286047002.4,N
1644559635.1,286047001.2,N
1644559636.0,286047001.2,N
1644559655.8,286046998.2,N
1644559675.7,286047000.1,N
1644559695.5,286047000.0,N
1644559715.3,286046998.5,N
1644559735.2,286047000.2,N
1644559755.0,286046998.3,N
1644559755.9,286046998.3,N
1644559775.7,286046996.9,N
1644559795.6,286046997.4,N
1644559815.4,286046994.9,N
1644559835.3,286046995.1,N
1644559855.1,286046995.7,N
1644559856.0,286046995.7,N
1644559875.8,286046997.8,N
1644559895.7,286046994.9,N
1644559915.5,286046995.6,N
1644559935.3,286046997.9,N
1644559955.2,286046996.0,N
1644559975.0,286046995.1,N
1644559975.9,286046995.1,N
1644559995.8,286046997.7,N
1644560045.6,286046999.2,E
1644560055.5,286046996.8,N
1644560075.4,286046998.8,P
1644560095.2,286046999.3,N
1644560115.1,286047000.4,N
1644560116.0,286047000.4,N
1644560135.8,286046998.2,N
1644560155.6,286047001.1,N
1644560175.5,286046998.6,N
1644560195.3,286046999.4,N
1644560215.2,286046996.7,N
1644560235.9,286046995.4,Y
1644560255.7,286046994.9,P
1644560275.6,286046997.7,N
1644560295.4,286046997.7,N
1644560315.2,286046997.8,N
1644560335.1,286046997.6,N
1644560336.0,286046997.6,N
1644560355.8,286046997.3,N
1644560375.7,286046995.0,Y
1644560395.5,286046999.6,P
1644560415.4,286046999.4,N
1644560435.2,286046998.9,N
1644560455.0,286046998.2,N
1644560455.9,286046998.2,N
1644560475.8,286046999.9,N
1644560495.6,286047000.3,N
1644560515.4,286046999.7,N
1644560535.3,286047002.8,Y
1644560555.1,286047002.2,P
1644560575.9,286047000.0,N
1644560595.7,286046998.8,N
1644560615.5,286046998.7,N
1644560635.4,286046998.3,N
1644560655.2,286046998.4,N
1644560675.0,286046999.1,N
1644560675.9,286046999.1,N
1644560695.8,286046999.1,N
1644560715.6,286046999.0,N
1644560735.5,286047000.8,N
1644560755.3,286046998.3,N
1644560775.1,286046999.2,N
1644560795.9,286046998.9,N
1644560815.7,286046996.6,Y
1644560835.5,286046996.9,P
1644560855.4,286046998.1,N
1644560875.2,286046998.6,N
1644560895.1,286046999.2,N
1644560896.0,286046999.2,N
1644560915.8,286046999.2,N
1644560935.6,286046999.6,N
1644560955.5,286046999.0,N
1644560975.3,286046998.5,N
1644560995.2,286046998.2,N
1644561015.9,286046999.4,N
1644561035.7,286046996.7,Y
1644561055.6,286046998.6,P
1644561075.4,286046998.6,P
1644561095.2,286047000.9,P
1644561115.1,286047000.5,N
1644561116.0,286047000.5,N
1644561135.8,286047001.1,N
1644561155.7,286047001.0,N
1644561175.5,286047000.0,N
1644561195.3,286047001.0,N
1644561215.2,286046998.2,N
1644561235.0,286046999.0,N
1644561235.9,286046999.0,N
1644561255.7,286046998.4,N
1644561275.6,286047000.5,N
1644561295.4,286047000.5,N
1644561315.3,286046996.5,Y
1644561335.1,286046999.0,P
1644561336.0,286046999.0,N
1644561355.8,286046999.3,N
1644561375.7,286046999.6,N
1644561395.5,286046999.6,N
1644561415.3,286046999.4,N
1644561435.2,286046999.5,N
1644561455.0,286046997.7,Y
1644561455.9,286046997.7,P
1644561475.8,286046999.2,N
1644561495.6,286046999.5,N
1644561515.4,286046998.9,N
1644561535.3,286047001.0,N
1644561555.1,286047000.9,N
1644561575.9,286047000.8,N
1644561595.9,286047000.0,N
1644561615.7,286047002.3,N
1644561635.6,286047000.2,N
1644561655.4,286047000.7,N
1644561675.2,286046998.5,N
1644561695.1,286046999.0,N
1644561696.0,286046999.0,N
1644561715.8,286046998.6,N
1644561735.7,286046999.6,N
1644561755.5,286046999.5,N
1644561775.3,286047001.2,N
1644561795.2,286046998.9,N
1644561815.9,286046998.8,N
1644561835.7,286047001.0,N
1644561855.6,286046999.9,N
1644561875.4,286047000.9,N
1644561895.3,286047000.1,N
1644561915.1,286047000.6,N
1644561916.0,286047000.6,N
1644561935.2,286046998.6,N
1644561955.0,286047000.3,N
1644561955.9,286047000.3,N
1644561975.8,286047000.9,N
1644561995.6,286047001.2,N
1644562015.4,286047000.7,N
1644562035.3,286046998.2,N
1644562055.1,286047001.1,N
1644562075.9,286047001.2,N
1644562095.7,286046998.9,N
1644562115.5,286046999.6,N
1644562135.4,286046998.5,N
1644562155.2,286046998.7,N
1644562175.1,286046996.9,Y
1644562176.0,286046996.9,P
1644562195.8,286046999.3,N
1644562215.7,286046999.1,N
1644562235.5,286046997.0,N
1644562255.3,286046998.8,N
1644562275.2,286046998.8,N
1644562295.0,286046999.4,N
1644562295.9,286046999.4,N
1644562315.7,286046998.9,N
1644562335.6,286046999.4,N
1644562355.4,286046999.0,N
1644562375.3,286046996.9,Y
1644562395.1,286046996.6,P
1644562415.8,286046996.6,P
1644562435.7,286046997.5,N
1644562455.5,286046996.9,Y
1644562475.4,286047002.0,P
1644562495.2,286047000.8,N
1644562515.0,286047002.2,N
1644562515.9,286047002.2,N
1644562535.8,286047001.4,N
1644562555.6,286047000.2,N
1644562575.4,286047000.0,N
1644562595.3,286046999.8,N
1644562615.1,286047001.7,N
1644562635.9,286047001.6,N
1644562655.7,286047004.3,Y
1644562675.5,286047002.1,P
1644562695.4,286047001.6,N
1644562715.2,286047002.1,P
1644562735.1,286047002.8,Y
1644562736.0,286047002.8,P
1644562755.8,286046998.7,N
1644562775.6,286047000.0,N
1644562795.5,286047000.0,N
